This is the latest recevied weather packets stored in our database for station/object SP8PUB-10. If no packets are shown the sender has not sent any weather packets the latest 10 day(s).
| Time | Temp. | Humidity | Pressure | Rain* | Wind** | Luminosity | Snow |
|---|---|---|---|---|---|---|---|
| 1777513817 | -1.67° C | 86% | 1029.9 hPa | - | - | - | - |
| 1777512917 | -1.67° C | 86% | 1029.8 hPa | - | - | - | - |
| 1777512017 | -1.11° C | 85% | 1029.7 hPa | - | - | - | - |
| 1777511117 | -1.11° C | 84% | 1029.7 hPa | - | - | - | - |
| 1777510217 | -1.11° C | 83% | 1029.8 hPa | - | - | - | - |
| 1777509317 | -1.11° C | 83% | 1029.7 hPa | - | - | - | - |
| 1777508417 | -1.11° C | 82% | 1029.6 hPa | - | - | - | - |
| 1777507517 | -1.11° C | 81% | 1029.5 hPa | - | - | - | - |
| 1777506616 | -0.56° C | 80% | 1029.6 hPa | - | - | - | - |
| 1777505717 | -0.56° C | 79% | 1029.7 hPa | - | - | - | - |
| 1777504816 | -0.56° C | 77% | 1029.7 hPa | - | - | - | - |
| 1777503916 | 0° C | 76% | 1029.7 hPa | - | - | - | - |
| 1777503016 | 0° C | 76% | 1029.6 hPa | - | - | - | - |
| 1777502116 | 0° C | 75% | 1029.5 hPa | - | - | - | - |
| 1777501145 | 0.56° C | 73% | 1029.4 hPa | - | - | - | - |
| 1777500245 | 0.56° C | 72% | 1029.4 hPa | - | - | - | - |
| 1777498450 | 1.11° C | 70% | 1029.2 hPa | - | - | - | - |
| 1777497550 | 1.11° C | 69% | 1029.1 hPa | - | - | - | - |
| 1777496650 | 1.11° C | 68% | 1029.1 hPa | - | - | - | - |
| 1777495750 | 1.67° C | 67% | 1028.8 hPa | - | - | - | - |
| 1777494853 | 2.22° C | 65% | 1028.8 hPa | - | - | - | - |
| 1777493949 | 2.22° C | 64% | 1028.6 hPa | - | - | - | - |
| 1777493049 | 2.78° C | 63% | 1028.6 hPa | - | - | - | - |
| 1777492149 | 2.78° C | 62% | 1028.4 hPa | - | - | - | - |
| 1777491249 | 2.78° C | 62% | 1028.5 hPa | - | - | - | - |
* Rain since midnight (hover to see other rain measurements)
** Current wind speed in m/s (hover to see current wind gust speed)